Volver al catálogo

STARLINK-11245

ActivoComunicacionesVLEO
NORAD 60925·PAYLOAD·🇺🇸 United States

Lanzado Aug 31, 2024 desde Vandenberg Space Force Base

Loading…

Próximos Pases (próximas 24 horas)

TLE

ActualizadoSource: CelesTrak SupGP

Época: Sep 15, 2026, 02:14 UTC

1 60925C 24155B   26258.09354167  .00061788  00000+0  50881-3 0  2589
2 60925  53.1566 127.7526 0001068  88.1319  63.5205 15.69686068    12

Sigue STARLINK-11245 en tiempo real con AllMySat

Download on the App Store